Year,Month,Day,Hour,Minute,Value (Times are PST for temperature in C)
2023,05,02,08,17,12.00
2023,05,02,08,18,12.00
2023,05,02,08,19,12.10
2023,05,02,08,20,12.20
2023,05,02,08,21,12.20
2023,05,02,08,22,12.20
2023,05,02,08,23,12.30
2023,05,02,08,24,12.30
2023,05,02,08,25,12.20
2023,05,02,08,26,12.20
2023,05,02,08,27,12.20
2023,05,02,08,28,12.20
2023,05,02,08,29,12.30
2023,05,02,08,30,12.30
2023,05,02,08,31,12.30
2023,05,02,08,32,12.40
2023,05,02,08,33,12.50
2023,05,02,08,34,12.50
2023,05,02,08,35,12.60
2023,05,02,08,36,12.60
2023,05,02,08,37,12.70
2023,05,02,08,38,12.80
2023,05,02,08,39,12.80
2023,05,02,08,40,12.90
2023,05,02,08,41,13.00
2023,05,02,08,42,13.00
2023,05,02,08,43,13.00
2023,05,02,08,44,13.00
2023,05,02,08,45,12.90
2023,05,02,08,46,12.90
2023,05,02,08,47,12.90
2023,05,02,08,48,13.00
2023,05,02,08,49,13.00
2023,05,02,08,50,13.10
2023,05,02,08,51,13.20
2023,05,02,08,52,13.30
2023,05,02,08,53,13.40
2023,05,02,08,54,13.60
2023,05,02,08,55,13.60
2023,05,02,08,56,13.70
2023,05,02,08,57,13.70
2023,05,02,08,58,13.70
2023,05,02,08,59,13.70
2023,05,02,09,00,13.70
2023,05,02,09,01,13.70
2023,05,02,09,02,13.70
2023,05,02,09,03,13.80
2023,05,02,09,04,13.90
2023,05,02,09,05,13.90
2023,05,02,09,06,14.00
2023,05,02,09,07,14.10
2023,05,02,09,08,14.20
2023,05,02,09,09,14.20
2023,05,02,09,10,14.20
2023,05,02,09,11,14.20
2023,05,02,09,12,14.20
2023,05,02,09,13,14.20
2023,05,02,09,14,14.20
2023,05,02,09,15,14.20
2023,05,02,09,16,14.20
2023,05,02,09,17,14.30
2023,05,02,09,18,14.30
2023,05,02,09,19,14.30
2023,05,02,09,20,14.30
2023,05,02,09,21,14.30
2023,05,02,09,22,14.30
2023,05,02,09,23,14.40
2023,05,02,09,24,14.40
2023,05,02,09,25,14.50
2023,05,02,09,26,14.60
2023,05,02,09,27,14.60
2023,05,02,09,28,14.60
2023,05,02,09,29,14.60
2023,05,02,09,30,14.60
2023,05,02,09,31,14.60
2023,05,02,09,32,14.60
2023,05,02,09,33,14.70
2023,05,02,09,34,14.70
2023,05,02,09,35,14.70
2023,05,02,09,36,14.80
2023,05,02,09,37,14.80
2023,05,02,09,38,14.90
2023,05,02,09,39,14.80
2023,05,02,09,40,14.80
2023,05,02,09,41,14.80
2023,05,02,09,42,14.80
2023,05,02,09,43,14.80
2023,05,02,09,44,14.80
2023,05,02,09,45,14.80
2023,05,02,09,46,14.90
2023,05,02,09,47,14.90
2023,05,02,09,48,14.90
2023,05,02,09,49,14.90
2023,05,02,09,50,14.90
2023,05,02,09,51,15.00
2023,05,02,09,52,15.10
2023,05,02,09,53,15.10
2023,05,02,09,54,15.20
2023,05,02,09,55,15.30
2023,05,02,09,56,15.30
2023,05,02,09,57,15.50
2023,05,02,09,58,15.60
2023,05,02,09,59,15.70
2023,05,02,10,00,15.80
2023,05,02,10,01,15.90
2023,05,02,10,02,15.90
2023,05,02,10,03,16.00
2023,05,02,10,04,16.10
2023,05,02,10,05,16.10
2023,05,02,10,06,16.10
2023,05,02,10,07,16.10
2023,05,02,10,08,16.10
2023,05,02,10,09,16.10
2023,05,02,10,10,16.10
2023,05,02,10,11,16.20
2023,05,02,10,12,16.30
2023,05,02,10,13,16.40
2023,05,02,10,14,16.50
2023,05,02,10,15,16.70
2023,05,02,10,16,16.70
2023,05,02,10,17,16.70
2023,05,02,10,18,16.70
2023,05,02,10,19,16.80
2023,05,02,10,20,16.80
2023,05,02,10,21,16.90
2023,05,02,10,22,16.90
2023,05,02,10,23,17.00
2023,05,02,10,24,17.00
2023,05,02,10,25,16.90
2023,05,02,10,26,16.90
2023,05,02,10,27,16.90
2023,05,02,10,28,16.90
2023,05,02,10,29,16.90
2023,05,02,10,30,17.00
2023,05,02,10,31,17.00
2023,05,02,10,32,17.10
2023,05,02,10,33,17.10
2023,05,02,10,34,17.10
2023,05,02,10,35,17.10
2023,05,02,10,36,17.10
2023,05,02,10,37,17.20
2023,05,02,10,38,17.20
2023,05,02,10,39,17.30
2023,05,02,10,40,17.30
2023,05,02,10,41,17.40
2023,05,02,10,42,17.40
2023,05,02,10,43,17.40
2023,05,02,10,44,17.40
2023,05,02,10,45,17.40
2023,05,02,10,46,17.50
2023,05,02,10,47,17.50
2023,05,02,10,48,17.40
2023,05,02,10,49,17.30
2023,05,02,10,50,17.20
2023,05,02,10,51,17.20
2023,05,02,10,52,17.20
2023,05,02,10,53,17.10
2023,05,02,10,54,17.00
2023,05,02,10,55,17.00
2023,05,02,10,56,17.10
2023,05,02,10,57,17.10
2023,05,02,10,58,17.30
2023,05,02,10,59,17.30
2023,05,02,11,00,17.30
2023,05,02,11,01,17.30
2023,05,02,11,02,17.30
2023,05,02,11,03,17.30
2023,05,02,11,04,17.40
2023,05,02,11,05,17.50
2023,05,02,11,06,17.60
2023,05,02,11,07,17.70
2023,05,02,11,08,17.80
2023,05,02,11,09,17.80
2023,05,02,11,10,17.90
2023,05,02,11,11,17.90
2023,05,02,11,12,17.90
2023,05,02,11,13,17.80
2023,05,02,11,14,17.80
2023,05,02,11,15,17.80
2023,05,02,11,16,17.80
2023,05,02,11,17,17.90
2023,05,02,11,18,18.10
2023,05,02,11,19,18.20
2023,05,02,11,20,18.20
2023,05,02,11,21,18.30
2023,05,02,11,22,18.30
2023,05,02,11,23,18.30
2023,05,02,11,24,18.30
2023,05,02,11,25,18.20
2023,05,02,11,26,18.10
2023,05,02,11,27,18.10
2023,05,02,11,28,18.10
2023,05,02,11,29,18.10
2023,05,02,11,30,18.20
2023,05,02,11,31,18.20
2023,05,02,11,32,18.30
2023,05,02,11,33,18.30
2023,05,02,11,34,18.40
2023,05,02,11,35,18.50
2023,05,02,11,36,18.60
2023,05,02,11,37,18.70
2023,05,02,11,38,18.70
2023,05,02,11,39,18.80
2023,05,02,11,40,18.80
2023,05,02,11,41,18.90
2023,05,02,11,42,18.90
2023,05,02,11,43,19.10
2023,05,02,11,44,19.10
2023,05,02,11,45,19.10
2023,05,02,11,46,19.10
2023,05,02,11,47,18.90
2023,05,02,11,48,18.90
2023,05,02,11,49,18.90
2023,05,02,11,50,18.80
2023,05,02,11,51,18.60
2023,05,02,11,52,18.50
2023,05,02,11,53,18.50
2023,05,02,11,54,18.40
2023,05,02,11,55,18.30
2023,05,02,11,56,18.20
2023,05,02,11,57,18.30
2023,05,02,11,58,18.30
2023,05,02,11,59,18.40
2023,05,02,12,00,18.60
2023,05,02,12,01,18.70
2023,05,02,12,02,18.60
2023,05,02,12,03,18.50
2023,05,02,12,04,18.50
2023,05,02,12,05,18.60
2023,05,02,12,06,18.60
2023,05,02,12,07,18.60
2023,05,02,12,08,18.50
2023,05,02,12,09,18.50
2023,05,02,12,10,18.50
2023,05,02,12,11,18.60
2023,05,02,12,12,18.70
2023,05,02,12,13,18.70
2023,05,02,12,14,18.80
2023,05,02,12,15,18.80
2023,05,02,12,16,18.90
2023,05,02,12,17,19.00
2023,05,02,12,18,19.10
2023,05,02,12,19,19.20
2023,05,02,12,20,19.40
2023,05,02,12,21,19.40
2023,05,02,12,22,19.50
2023,05,02,12,23,19.50
2023,05,02,12,24,19.40
2023,05,02,12,25,19.40
2023,05,02,12,26,19.40
2023,05,02,12,27,19.40
2023,05,02,12,28,19.40
2023,05,02,12,29,19.30
2023,05,02,12,30,19.10
2023,05,02,12,31,19.10
2023,05,02,12,32,19.10
2023,05,02,12,33,19.10
2023,05,02,12,34,18.90
2023,05,02,12,35,18.70
2023,05,02,12,36,18.60
2023,05,02,12,37,18.50
2023,05,02,12,38,18.60
2023,05,02,12,39,18.60
2023,05,02,12,40,18.60
2023,05,02,12,41,18.50
2023,05,02,12,42,18.50
2023,05,02,12,43,18.50
2023,05,02,12,44,18.50
2023,05,02,12,45,18.40
2023,05,02,12,46,18.20
2023,05,02,12,47,18.10
2023,05,02,12,48,18.10
2023,05,02,12,49,18.10
2023,05,02,12,50,18.10
2023,05,02,12,51,18.10
2023,05,02,12,52,18.20
2023,05,02,12,53,18.40
2023,05,02,12,54,18.60
2023,05,02,12,55,18.70
2023,05,02,12,56,18.90
2023,05,02,12,57,19.00
2023,05,02,12,58,19.20
2023,05,02,12,59,19.40
2023,05,02,13,00,19.60
2023,05,02,13,01,19.70
2023,05,02,13,02,19.80
2023,05,02,13,03,19.80
2023,05,02,13,04,19.70
2023,05,02,13,05,19.60
2023,05,02,13,06,19.50
2023,05,02,13,07,19.50
2023,05,02,13,08,19.60
2023,05,02,13,09,19.60
2023,05,02,13,10,19.40
2023,05,02,13,11,19.40
2023,05,02,13,12,19.20
2023,05,02,13,13,19.20
2023,05,02,13,14,19.20
2023,05,02,13,15,19.10
2023,05,02,13,16,19.10
2023,05,02,13,17,19.00
2023,05,02,13,18,18.90
2023,05,02,13,19,19.10
2023,05,02,13,20,19.20
2023,05,02,13,21,19.30
2023,05,02,13,22,19.30
2023,05,02,13,23,19.40
2023,05,02,13,24,19.40
2023,05,02,13,25,19.50
2023,05,02,13,26,19.50
2023,05,02,13,27,19.60
2023,05,02,13,28,19.60
2023,05,02,13,29,19.50
2023,05,02,13,30,19.40
2023,05,02,13,31,19.50
2023,05,02,13,32,19.50
2023,05,02,13,33,19.40
2023,05,02,13,34,19.40
2023,05,02,13,35,19.30
2023,05,02,13,36,19.30
2023,05,02,13,37,19.40
2023,05,02,13,38,19.40
2023,05,02,13,39,19.50
2023,05,02,13,40,19.60
2023,05,02,13,41,19.60
2023,05,02,13,42,19.40
2023,05,02,13,43,19.30
2023,05,02,13,44,19.10
2023,05,02,13,45,19.00
2023,05,02,13,46,18.90
2023,05,02,13,47,18.80
2023,05,02,13,48,18.80
2023,05,02,13,49,18.80
2023,05,02,13,50,18.90
2023,05,02,13,51,18.90
2023,05,02,13,52,18.90
2023,05,02,13,53,18.90
2023,05,02,13,54,19.00
2023,05,02,13,55,19.10
2023,05,02,13,56,19.30
2023,05,02,13,57,19.30
2023,05,02,13,58,19.40
2023,05,02,13,59,19.40
2023,05,02,14,00,19.40
2023,05,02,14,01,19.40
2023,05,02,14,02,19.40
2023,05,02,14,03,19.40
2023,05,02,14,04,19.40
2023,05,02,14,05,19.50
2023,05,02,14,06,19.60
2023,05,02,14,07,19.50
2023,05,02,14,08,19.50
2023,05,02,14,09,19.40
2023,05,02,14,10,19.30
2023,05,02,14,11,19.20
2023,05,02,14,12,19.10
2023,05,02,14,13,19.00
2023,05,02,14,14,18.90
2023,05,02,14,15,18.70
2023,05,02,14,16,18.60
2023,05,02,14,17,18.60
2023,05,02,14,18,18.70
2023,05,02,14,19,18.70
2023,05,02,14,20,18.90
2023,05,02,14,21,19.00
2023,05,02,14,22,19.20
2023,05,02,14,23,19.30
2023,05,02,14,24,19.50
2023,05,02,14,25,19.70
2023,05,02,14,26,19.90
2023,05,02,14,27,19.90
2023,05,02,14,28,19.80
2023,05,02,14,29,19.80
2023,05,02,14,30,19.90
2023,05,02,14,31,19.90
2023,05,02,14,32,19.90
2023,05,02,14,33,19.90
2023,05,02,14,34,19.90
2023,05,02,14,35,20.00
2023,05,02,14,36,20.00
2023,05,02,14,37,20.00
2023,05,02,14,38,19.90
2023,05,02,14,39,19.80
2023,05,02,14,40,19.80
2023,05,02,14,41,19.70
2023,05,02,14,42,19.60
2023,05,02,14,43,19.40
2023,05,02,14,44,19.20
2023,05,02,14,45,19.00
2023,05,02,14,46,18.90
2023,05,02,14,47,18.70
2023,05,02,14,48,18.60
2023,05,02,14,49,18.60
2023,05,02,14,50,18.50
2023,05,02,14,51,18.50
2023,05,02,14,52,18.50
2023,05,02,14,53,18.40
2023,05,02,14,54,18.30
2023,05,02,14,55,18.30
2023,05,02,14,56,18.40
2023,05,02,14,57,18.40
2023,05,02,14,58,18.50
2023,05,02,14,59,18.60
2023,05,02,15,00,18.60
2023,05,02,15,01,18.70
2023,05,02,15,02,18.80
2023,05,02,15,03,18.80
2023,05,02,15,04,18.80
2023,05,02,15,05,18.80
2023,05,02,15,06,18.80
2023,05,02,15,07,18.90
2023,05,02,15,08,18.90
2023,05,02,15,09,19.00
2023,05,02,15,10,19.10
2023,05,02,15,11,19.10
2023,05,02,15,12,19.00
2023,05,02,15,13,19.00
2023,05,02,15,14,19.10
2023,05,02,15,15,19.20
2023,05,02,15,16,19.30
2023,05,02,15,17,19.20
2023,05,02,15,18,19.10
2023,05,02,15,19,19.10
2023,05,02,15,20,19.30
2023,05,02,15,21,19.30
2023,05,02,15,22,19.40
2023,05,02,15,23,19.40
2023,05,02,15,24,19.30
2023,05,02,15,25,19.40
2023,05,02,15,26,19.40
2023,05,02,15,27,19.40
2023,05,02,15,28,19.40
2023,05,02,15,29,19.40
2023,05,02,15,30,19.40
2023,05,02,15,31,19.40
2023,05,02,15,32,19.40
2023,05,02,15,33,19.50
2023,05,02,15,34,19.60
2023,05,02,15,35,19.70
2023,05,02,15,36,19.90
2023,05,02,15,37,19.90
2023,05,02,15,38,19.90
2023,05,02,15,39,19.90
2023,05,02,15,40,19.90
2023,05,02,15,41,19.90
2023,05,02,15,42,19.90
2023,05,02,15,43,19.90
2023,05,02,15,44,19.90
2023,05,02,15,45,19.90
2023,05,02,15,46,20.00
2023,05,02,15,47,20.10
2023,05,02,15,48,20.10
2023,05,02,15,49,20.10
2023,05,02,15,50,20.20
2023,05,02,15,51,20.20
2023,05,02,15,52,20.20
2023,05,02,15,53,20.20
2023,05,02,15,54,20.20
2023,05,02,15,55,20.20
2023,05,02,15,56,20.00
2023,05,02,15,57,19.90
2023,05,02,15,58,19.90
2023,05,02,15,59,19.90
2023,05,02,16,00,19.80
2023,05,02,16,01,19.70
2023,05,02,16,02,19.60
2023,05,02,16,03,19.60
2023,05,02,16,04,19.70
2023,05,02,16,05,19.80
2023,05,02,16,06,19.90
2023,05,02,16,07,19.90
2023,05,02,16,08,20.00
2023,05,02,16,09,20.10
2023,05,02,16,10,20.20
2023,05,02,16,11,20.10
2023,05,02,16,12,20.10
2023,05,02,16,13,20.10
2023,05,02,16,14,20.00
2023,05,02,16,15,19.90
2023,05,02,16,16,19.90
2023,05,02,16,17,19.80
2023,05,02,16,18,19.70
2023,05,02,16,19,19.60
2023,05,02,16,20,19.70
2023,05,02,16,21,19.70
2023,05,02,16,22,19.70
2023,05,02,16,23,19.70
2023,05,02,16,24,19.70
2023,05,02,16,25,19.80
2023,05,02,16,26,19.80
2023,05,02,16,27,19.70
2023,05,02,16,28,19.70
2023,05,02,16,29,19.80
2023,05,02,16,30,19.80
2023,05,02,16,31,19.80
2023,05,02,16,32,19.80
2023,05,02,16,33,19.70
2023,05,02,16,34,19.60
2023,05,02,16,35,19.60
2023,05,02,16,36,19.70
2023,05,02,16,37,19.70
2023,05,02,16,38,19.80
2023,05,02,16,39,19.90
2023,05,02,16,40,20.00
2023,05,02,16,41,20.10
2023,05,02,16,42,20.10
2023,05,02,16,43,20.20
2023,05,02,16,44,20.20
2023,05,02,16,45,20.20
2023,05,02,16,46,20.30
2023,05,02,16,47,20.30
2023,05,02,16,48,20.40
2023,05,02,16,49,20.50
2023,05,02,16,50,20.60
2023,05,02,16,51,20.70
2023,05,02,16,52,20.80
2023,05,02,16,53,20.80
2023,05,02,16,54,20.90
2023,05,02,16,55,20.90
2023,05,02,16,56,20.90
2023,05,02,16,57,21.00
2023,05,02,16,58,21.00
2023,05,02,16,59,21.00
2023,05,02,17,00,21.10
2023,05,02,17,01,21.20
2023,05,02,17,02,21.20
2023,05,02,17,03,21.10
2023,05,02,17,04,21.10
2023,05,02,17,05,21.00
2023,05,02,17,06,21.00
2023,05,02,17,07,21.00
2023,05,02,17,08,21.00
2023,05,02,17,09,21.00
2023,05,02,17,10,20.90
2023,05,02,17,11,20.90
2023,05,02,17,12,20.90
2023,05,02,17,13,20.90
2023,05,02,17,14,20.90
2023,05,02,17,15,20.90
2023,05,02,17,16,20.90
2023,05,02,17,17,20.90
2023,05,02,17,18,20.90
2023,05,02,17,19,20.80
2023,05,02,17,20,20.70
2023,05,02,17,21,20.60
2023,05,02,17,22,20.60
2023,05,02,17,23,20.60
2023,05,02,17,24,20.50
2023,05,02,17,25,20.50
2023,05,02,17,26,20.40
2023,05,02,17,27,20.40
2023,05,02,17,28,20.40
2023,05,02,17,29,20.40
2023,05,02,17,30,20.20
2023,05,02,17,31,20.20
2023,05,02,17,32,20.20
2023,05,02,17,33,20.10
2023,05,02,17,34,20.00
2023,05,02,17,35,19.90
2023,05,02,17,36,19.90
2023,05,02,17,37,19.90
2023,05,02,17,38,19.80
2023,05,02,17,39,19.60
2023,05,02,17,40,19.50
2023,05,02,17,41,19.30
2023,05,02,17,42,19.20
2023,05,02,17,43,19.10
2023,05,02,17,44,19.10
2023,05,02,17,45,19.10
2023,05,02,17,46,19.00
2023,05,02,17,47,18.90
2023,05,02,17,48,18.80
2023,05,02,17,49,18.90
2023,05,02,17,50,18.90
2023,05,02,17,51,18.90
2023,05,02,17,52,19.00
2023,05,02,17,53,19.10
2023,05,02,17,54,19.10
2023,05,02,17,55,19.20
2023,05,02,17,56,19.30
2023,05,02,17,57,19.30
2023,05,02,17,58,19.30
2023,05,02,17,59,19.30
2023,05,02,18,00,19.20
2023,05,02,18,01,19.30
2023,05,02,18,02,19.30
2023,05,02,18,03,19.30
2023,05,02,18,04,19.30
2023,05,02,18,05,19.20
2023,05,02,18,06,19.10
2023,05,02,18,07,19.10
2023,05,02,18,08,19.10
2023,05,02,18,09,19.10
2023,05,02,18,10,19.10
2023,05,02,18,11,19.10
2023,05,02,18,12,19.10
2023,05,02,18,13,19.20
2023,05,02,18,14,19.20
2023,05,02,18,15,19.20
2023,05,02,18,16,19.20
2023,05,02,18,17,19.30
2023,05,02,18,18,19.30
2023,05,02,18,19,19.40
2023,05,02,18,20,19.40
2023,05,02,18,21,19.40
2023,05,02,18,22,19.40
2023,05,02,18,23,19.40
2023,05,02,18,24,19.40
2023,05,02,18,25,19.40
2023,05,02,18,26,19.40
2023,05,02,18,27,19.30
2023,05,02,18,28,19.40
2023,05,02,18,29,19.40
2023,05,02,18,30,19.40
2023,05,02,18,31,19.40
2023,05,02,18,32,19.30
2023,05,02,18,33,19.30
2023,05,02,18,34,19.30
2023,05,02,18,35,19.30
2023,05,02,18,36,19.30
2023,05,02,18,37,19.20
2023,05,02,18,38,19.20
2023,05,02,18,39,19.20
2023,05,02,18,40,19.10
2023,05,02,18,41,19.10
2023,05,02,18,42,19.10
2023,05,02,18,43,19.10
2023,05,02,18,44,19.10
2023,05,02,18,45,19.10
2023,05,02,18,46,19.10
2023,05,02,18,47,19.10
2023,05,02,18,48,19.10
2023,05,02,18,49,19.10
2023,05,02,18,50,19.10
2023,05,02,18,51,19.10
2023,05,02,18,52,19.10
2023,05,02,18,53,19.10
2023,05,02,18,54,19.10
2023,05,02,18,55,18.90
2023,05,02,18,56,18.90
2023,05,02,18,57,18.90
2023,05,02,18,58,18.90
2023,05,02,18,59,18.90
2023,05,02,19,00,18.90
2023,05,02,19,01,18.90
2023,05,02,19,02,18.90
2023,05,02,19,03,18.90
2023,05,02,19,04,18.90
2023,05,02,19,05,18.90
2023,05,02,19,06,18.90
2023,05,02,19,07,18.90
